Overview Statistics Trail Chart Weather Telemetry Raw packets
 

This is the latest recevied weather packets stored in our database for station/object KE8WMS. If no packets are shown the sender has not sent any weather packets the latest 10 day(s).

<< 75 76 77 78 79 80 81 >>
Time Temp. Humidity Pressure Rain* Wind** Luminosity Snow
1777298995 13.89° C 70% 1016.8 hPa 0 mm - 368 W/m² -
1777298693 13.89° C 73% 1016.9 hPa 0 mm - 397 W/m² -
1777298389 13.33° C 72% 1016.8 hPa 0 mm - 383 W/m² -
1777298085 12.78° C 74% 1017 hPa 0 mm - 370 W/m² -
1777297785 12.78° C 72% 1017.1 hPa 0 mm - 295 W/m² -
1777297484 12.78° C 78% 1017.1 hPa 0 mm - 218 W/m² -
1777297180 12.22° C 74% 1016.9 hPa 0 mm - 178 W/m² -
1777296878 12.22° C 76% 1017 hPa 0 mm - 142 W/m² -
1777296573 11.67° C 76% 1017.1 hPa 0 mm - 144 W/m² -
1777296239 11.67° C 79% 1017.2 hPa 0 mm - 136 W/m² -
1777295935 11.67° C 78% 1017.2 hPa 0 mm - 138 W/m² -
1777295633 11.67° C 78% 1017.2 hPa 0 mm - 178 W/m² -
1777295330 11.11° C 80% 1017.2 hPa 0 mm - 145 W/m² -
1777295028 11.11° C 80% 1017.2 hPa 0 mm - 131 W/m² -
1777294724 10.56° C 80% 1017.2 hPa 0 mm - 110 W/m² -
1777294418 10.56° C 81% 1017.3 hPa 0 mm - 97 W/m² -
1777294116 10.56° C 82% 1017.3 hPa 0 mm - 109 W/m² -
1777293808 10° C 83% 1017.7 hPa 0 mm - 88 W/m² -
1777293507 10° C 85% 1017.8 hPa 0 mm - 78 W/m² -
1777293204 10° C 84% 1017.5 hPa 0 mm - 82 W/m² -
1777292902 10° C 85% 1017.5 hPa 0 mm - 71 W/m² -
1777292599 10° C 85% 1017.3 hPa 0 mm - 74 W/m² -
1777292295 10° C 84% 1017.6 hPa 0 mm - 75 W/m² -
1777291991 10° C 85% 1017.7 hPa 0 mm - 77 W/m² -
1777291688 9.44° C 86% 1017.5 hPa 0 mm - 78 W/m² -

* Rain latest hour (hover to see other rain measurements)
** Current wind speed in m/s (hover to see current wind gust speed)